Flag for Israel Weather past 2 weeks in Petah Tikva, Israel

Now
79 °F

Passing clouds.


Feels Like: 81 °F
Forecast: 77 / 87 °F
Wind: 8 mph from North

Location: Ben Gurion International Airport

Current Time: Oct 1, 2014 at 9:27:24 PM

Latest Report: Oct 1, 2014 at 8:50 PM


Visibility: N/A

Pressure: 29.95 "Hg

Humidity: 61%

Dew point: 64 °F

Location of Petah TikvaLocation

Historic Weather in Petah Tikva — Graph

°F

Petah Tikva temperature yesterday

Maximum temperature yesterday: 82 °F (at 11:50 AM)
Minimum temperature yesterday: 68 °F (at 3:20 AM)
Average temperature yesterday: 76 °F

Past Weeks' High & Low Weather Summary

 TemperatureHumidityPressure
High100 °F (Sep 17, 1:20 PM)83% (Sep 24, 5:50 AM)30.01 "Hg (Sep 24, 5:50 AM)
Low68 °F (Sep 30, 3:20 AM)20% (Sep 17, 10:50 AM)29.68 "Hg (Sep 17, 3:50 PM)
Average79 °F61%29.91 "Hg
* Reported Sep 16 8:20 PM — Oct 1 8:20 PM, Petah Tikva, Weather by CustomWeather, © 2014

Note: Actual official high and low records may vary slightly from our data, if they occured in-between our weather recording intervals... More about our weather records

Advertising

Petah Tikva weather history for previous 24 hours

 ConditionsComfort  
Time TempWeatherWind HumidityBarometerVisibility
8:20 PM
Oct 1
79 °FPassing clouds.9 mph61%29.92 "HgN/A
7:50 PM79 °FPassing clouds.8 mph61%29.92 "HgN/A
7:20 PM79 °FThundershowers. Overcast.6 mph61%29.92 "HgN/A
6:50 PM79 °FPassing clouds.10 mph58%29.92 "HgN/A
6:20 PM81 °FScattered clouds.8 mph54%29.92 "HgN/A
5:50 PM81 °FScattered clouds.13 mph54%29.89 "HgN/A
5:20 PM81 °FScattered clouds.14 mph54%29.89 "HgN/A
4:50 PM82 °FScattered clouds.13 mph51%29.89 "HgN/A
4:20 PM82 °FScattered clouds.12 mph51%29.89 "HgN/A
3:50 PM82 °FScattered clouds.13 mph51%29.89 "HgN/A
3:20 PM84 °FScattered clouds.14 mph48%29.89 "HgN/A
2:50 PM82 °FScattered clouds.13 mph51%29.89 "HgN/A
2:20 PM84 °FScattered clouds.14 mph51%29.89 "HgN/A
1:50 PM84 °FScattered clouds.13 mph48%29.92 "HgN/A
1:20 PM84 °FScattered clouds.13 mph51%29.92 "HgN/A
12:50 PM84 °FScattered clouds.10 mph51%29.92 "HgN/A
12:20 PM82 °FScattered clouds.9 mph51%29.92 "HgN/A
11:50 AM82 °FScattered clouds.7 mph51%29.92 "HgN/A
11:20 AM82 °FScattered clouds.10 mph51%29.95 "HgN/A
10:50 AM82 °FScattered clouds.2 mph51%29.95 "HgN/A
10:20 AM82 °FPassing clouds.2 mph51%29.95 "HgN/A
9:50 AM81 °FPassing clouds.1 mph58%29.95 "HgN/A
9:20 AM79 °FPassing clouds.3 mph58%29.95 "HgN/A
8:50 AM75 °FPassing clouds.3 mph61%29.95 "HgN/A
8:20 AM73 °FPassing clouds.2 mph61%29.95 "HgN/A
7:50 AM70 °FPassing clouds.3 mph69%29.95 "HgN/A
7:20 AM68 °FScattered clouds.1 mph73%29.95 "HgN/A
6:50 AM68 °FScattered clouds.3 mph73%29.95 "HgN/A
6:20 AM68 °FPassing clouds.3 mph73%29.95 "HgN/A
5:50 AM68 °FPassing clouds.2 mph73%29.95 "HgN/A
5:20 AM68 °FClear.2 mph73%29.95 "Hg10 mi
4:50 AM68 °FClear.5 mph73%29.92 "Hg10 mi
4:20 AM68 °FClear.1 mph73%29.92 "Hg10 mi
3:50 AM68 °FClear.1 mph73%29.92 "Hg10 mi
3:20 AM70 °FClear.2 mph73%29.95 "Hg10 mi
2:50 AM70 °FClear.3 mph73%29.95 "Hg10 mi
2:20 AM70 °FClear.2 mph69%29.95 "Hg10 mi
1:50 AM72 °FClear.2 mph69%29.95 "Hg10 mi
1:20 AM72 °FClear.2 mph69%29.95 "Hg10 mi
12:50 AM73 °FPassing clouds.2 mph69%29.95 "HgN/A
12:20 AM73 °FPassing clouds.3 mph69%29.95 "HgN/A
11:50 PM
Sep 30
73 °FPassing clouds.6 mph69%29.95 "HgN/A
11:20 PM75 °FPassing clouds.6 mph65%29.95 "HgN/A
10:50 PM75 °FPassing clouds.8 mph65%29.95 "HgN/A
10:20 PM75 °FPassing clouds.7 mph65%29.95 "HgN/A
9:50 PM75 °FPassing clouds.7 mph65%29.95 "HgN/A
9:20 PM77 °FPassing clouds.8 mph61%29.95 "HgN/A
Weather by CustomWeather, © 2014

See weather overviewHow to use our weather pages